| time (UTC) | temp F | wind direction | speed MPH | gust MPH | rain 1hr in | rain 24hr in | rain mn in | humidity % | barometer mb |
| 20260903174216 | 83 | 23 | 4.0 | 6.0 | 0.00 | 0.00 | 0.00 | 73 | 1013.9 |
| 20260903173216 | 83 | 68 | 5.0 | 9.0 | 0.00 | 0.00 | 0.00 | 73 | 1013.9 |
| 20260903172216 | 82 | 0 | 5.0 | 7.0 | 0.00 | 0.00 | 0.00 | 73 | 1014.2 |
| 20260903171237 | 82 | 45 | 7.0 | 10.0 | 0.00 | 0.00 | 0.00 | 73 | 1014.3 |
| 20260903170216 | 82 | 23 | 4.0 | 8.0 | 0.00 | 0.00 | 0.00 | 74 | 1014.4 |
| 20260903165216 | 82 | 293 | 5.0 | 10.0 | 0.00 | 0.00 | 0.00 | 73 | 1014.4 |
| 20260903164216 | 82 | 0 | 8.0 | 16.0 | 0.00 | 0.00 | 0.00 | 73 | 1014.4 |
| 20260903163216 | 82 | 315 | 9.0 | 18.0 | 0.00 | 0.00 | 0.00 | 71 | 1014.3 |
| 20260903162216 | 82 | 270 | 4.0 | 9.0 | 0.00 | 0.00 | 0.00 | 71 | 1014.3 |
| 20260903161216 | 82 | 338 | 7.0 | 12.0 | 0.00 | 0.00 | 0.00 | 69 | 1014.2 |
| 20260903160216 | 82 | 293 | 6.0 | 13.0 | 0.00 | 0.00 | 0.00 | 70 | 1014.1 |
| 20260903155236 | 84 | 270 | 6.0 | 9.0 | 0.00 | 0.00 | 0.00 | 70 | 1014.0 |
| 20260903154216 | 86 | 293 | 14.0 | 22.0 | 0.00 | 0.00 | 0.00 | 66 | 1014.1 |
| 20260903153216 | 89 | 0 | 5.0 | 8.0 | 0.00 | 0.00 | 0.00 | 63 | 1013.4 |
| 20260903152216 | 89 | 0 | 5.0 | 6.0 | 0.00 | 0.00 | 0.00 | 65 | 1013.0 |
| 20260903151216 | 89 | 0 | 6.0 | 9.0 | 0.00 | 0.00 | 0.00 | 64 | 1013.0 |
| 20260903150236 | 89 | 0 | 7.0 | 9.0 | 0.00 | 0.00 | 0.00 | 65 | 1013.0 |
| 20260903145236 | 88 | 0 | 3.0 | 6.0 | 0.00 | 0.00 | 0.00 | 66 | 1013.0 |
| 20260903144216 | 88 | 0 | 6.0 | 8.0 | 0.00 | 0.00 | 0.00 | 67 | 1013.1 |
| 20260903143216 | 87 | 0 | 4.0 | 8.0 | 0.00 | 0.00 | 0.00 | 68 | 1013.0 |
| 20260903142216 | 86 | 0 | 6.0 | 9.0 | 0.00 | 0.00 | 0.00 | 69 | 1012.9 |
| 20260903141216 | 85 | 0 | 5.0 | 8.0 | 0.00 | 0.00 | 0.00 | 71 | 1012.9 |
| 20260903140236 | 84 | 0 | 7.0 | 9.0 | 0.00 | 0.00 | 0.00 | 72 | 1012.8 |
| 20260903135236 | 83 | 0 | 6.0 | 8.0 | 0.00 | 0.00 | 0.00 | 74 | 1012.8 |
| 20260903134216 | 83 | 0 | 10.0 | 13.0 | 0.00 | 0.00 | 0.00 | 74 | 1012.7 |
| 20260903133216 | 82 | 0 | 8.0 | 10.0 | 0.00 | 0.00 | 0.00 | 75 | 1012.9 |
| 20260903132216 | 81 | 0 | 5.0 | 9.0 | 0.00 | 0.00 | 0.00 | 77 | 1012.9 |
| 20260903131216 | 81 | 0 | 6.0 | 8.0 | 0.00 | 0.00 | 0.00 | 79 | 1012.9 |
| 20260903130216 | 80 | 0 | 6.0 | 9.0 | 0.00 | 0.00 | 0.00 | 80 | 1013.0 |
| 20260903125216 | 79 | 0 | 3.0 | 5.0 | 0.00 | 0.00 | 0.00 | 81 | 1012.8 |
| 20260903124236 | 78 | 0 | 4.0 | 5.0 | 0.00 | 0.00 | 0.00 | 82 | 1012.9 |
| 20260903123216 | 78 | 0 | 3.0 | 4.0 | 0.00 | 0.00 | 0.00 | 82 | 1012.9 |
| 20260903122216 | 78 | 0 | 5.0 | 8.0 | 0.00 | 0.00 | 0.00 | 82 | 1013.0 |
| 20260903121216 | 77 | 203 | 3.0 | 4.0 | 0.00 | 0.00 | 0.00 | 83 | 1012.9 |
| 20260903120216 | 77 | 203 | 3.0 | 4.0 | 0.00 | 0.00 | 0.00 | 83 | 1013.1 |
| 20260903115216 | 77 | 225 | 2.0 | 3.0 | 0.00 | 0.00 | 0.00 | 83 | 1013.0 |
| 20260903114218 | 77 | 203 | 2.0 | 3.0 | 0.00 | 0.00 | 0.00 | 84 | 1013.0 |
| 20260903113216 | 77 | 0 | 4.0 | 5.0 | 0.00 | 0.00 | 0.00 | 84 | 1013.0 |
| 20260903112216 | 77 | 0 | 4.0 | 5.0 | 0.00 | 0.00 | 0.00 | 84 | 1013.0 |
| 20260903111216 | 76 | 203 | 3.0 | 4.0 | 0.00 | 0.00 | 0.00 | 85 | 1012.9 |
| 20260903110216 | 76 | 203 | 3.0 | 4.0 | 0.00 | 0.00 | 0.00 | 85 | 1012.9 |
| 20260903105236 | 76 | 203 | 3.0 | 5.0 | 0.00 | 0.00 | 0.00 | 85 | 1012.9 |
| 20260903104216 | 76 | 0 | 3.0 | 4.0 | 0.00 | 0.00 | 0.00 | 86 | 1012.8 |
| 20260903103216 | 76 | 0 | 3.0 | 4.0 | 0.00 | 0.00 | 0.00 | 86 | 1012.8 |
| 20260903102216 | 76 | 0 | 4.0 | 6.0 | 0.00 | 0.00 | 0.00 | 86 | 1012.8 |
| 20260903101215 | 77 | 203 | 5.0 | 6.0 | 0.00 | 0.00 | 0.00 | 87 | 1012.7 |
| 20260903100236 | 77 | 180 | 3.0 | 6.0 | 0.00 | 0.00 | 0.00 | 87 | 1012.8 |
| 20260903095216 | 77 | 203 | 2.0 | 3.0 | 0.00 | 0.00 | 0.00 | 87 | 1012.8 |
| 20260903094216 | 77 | 225 | 1.0 | 2.0 | 0.00 | 0.00 | 0.00 | 86 | 1012.8 |
| 20260903093216 | 77 | 225 | 2.0 | 3.0 | 0.00 | 0.00 | 0.00 | 86 | 1012.7 |
| 20260903092217 | 77 | 248 | 1.0 | 2.0 | 0.00 | 0.00 | 0.00 | 86 | 1012.7 |
| 20260903091217 | 77 | 203 | 1.0 | 1.0 | 0.00 | 0.00 | 0.00 | 86 | 1012.6 |
| 20260903090217 | 77 | 225 | 1.0 | 1.0 | 0.00 | 0.00 | 0.00 | 86 | 1012.7 |
| 20260903085217 | 77 | 203 | 1.0 | 2.0 | 0.00 | 0.00 | 0.00 | 86 | 1012.6 |
| 20260903084217 | 78 | 180 | 2.0 | 3.0 | 0.00 | 0.00 | 0.00 | 86 | 1012.6 |
| 20260903083217 | 78 | 180 | 1.0 | 3.0 | 0.00 | 0.00 | 0.00 | 86 | 1012.6 |
| 20260903082217 | 78 | 203 | 1.0 | 3.0 | 0.00 | 0.00 | 0.00 | 86 | 1012.6 |
| 20260903081217 | 78 | 203 | 2.0 | 2.0 | 0.00 | 0.00 | 0.00 | 86 | 1012.6 |
| 20260903080217 | 78 | 180 | 1.0 | 2.0 | 0.00 | 0.00 | 0.00 | 85 | 1012.6 |
| 20260903075217 | 78 | 203 | 1.0 | 2.0 | 0.00 | 0.00 | 0.00 | 85 | 1012.5 |
| 20260903074217 | 78 | 203 | 1.0 | 2.0 | 0.00 | 0.00 | 0.00 | 85 | 1012.5 |
| 20260903073217 | 78 | 203 | 2.0 | 3.0 | 0.00 | 0.00 | 0.00 | 85 | 1012.6 |
| 20260903072217 | 78 | 203 | 2.0 | 3.0 | 0.00 | 0.00 | 0.00 | 84 | 1012.7 |
| 20260903071217 | 79 | 203 | 2.0 | 3.0 | 0.00 | 0.00 | 0.00 | 84 | 1012.7 |
| 20260903070217 | 79 | 203 | 1.0 | 2.0 | 0.00 | 0.00 | 0.00 | 84 | 1012.7 |
| 20260903065237 | 79 | 203 | 2.0 | 3.0 | 0.00 | 0.00 | 0.00 | 84 | 1012.7 |
| 20260903064217 | 79 | 180 | 1.0 | 2.0 | 0.00 | 0.00 | 0.00 | 84 | 1012.8 |
| 20260903063217 | 79 | 225 | 1.0 | 2.0 | 0.00 | 0.00 | 0.00 | 84 | 1012.8 |
| 20260903062237 | 79 | 203 | 2.0 | 3.0 | 0.00 | 0.00 | 0.00 | 84 | 1012.7 |
| 20260903061217 | 80 | 225 | 1.0 | 2.0 | 0.00 | 0.00 | 0.00 | 83 | 1012.9 |
| 20260903060217 | 80 | 203 | 2.0 | 3.0 | 0.00 | 0.00 | 0.00 | 83 | 1012.9 |
| 20260903055217 | 80 | 203 | 2.0 | 3.0 | 0.00 | 0.00 | 0.00 | 83 | 1012.8 |
| 20260903054217 | 80 | 203 | 2.0 | 3.0 | 0.00 | 0.00 | 0.00 | 84 | 1012.8 |
| 20260903053217 | 80 | 203 | 2.0 | 3.0 | 0.00 | 0.00 | 0.00 | 84 | 1012.8 |
| 20260903052237 | 80 | 0 | 4.0 | 5.0 | 0.00 | 0.00 | 0.00 | 84 | 1012.8 |
| 20260903051217 | 80 | 225 | 2.0 | 3.0 | 0.00 | 0.00 | 0.00 | 84 | 1012.7 |
| 20260903050217 | 80 | 225 | 2.0 | 3.0 | 0.00 | 0.00 | 0.00 | 83 | 1012.6 |
| 20260903045236 | 80 | 225 | 2.0 | 2.0 | 0.00 | 0.00 | 0.00 | 83 | 1012.6 |
| 20260903044236 | 80 | 203 | 2.0 | 3.0 | 0.00 | 0.00 | 0.00 | 83 | 1012.5 |
| 20260903043216 | 81 | 180 | 2.0 | 3.0 | 0.00 | 0.00 | 0.00 | 82 | 1012.6 |
| 20260903042216 | 81 | 203 | 1.0 | 2.0 | 0.00 | 0.00 | 0.00 | 81 | 1012.5 |
| 20260903041216 | 81 | 180 | 2.0 | 3.0 | 0.00 | 0.00 | 0.00 | 81 | 1012.6 |
| 20260903040216 | 81 | 225 | 2.0 | 4.0 | 0.00 | 0.00 | 0.00 | 80 | 1012.6 |
| 20260903035215 | 81 | 225 | 2.0 | 3.0 | 0.00 | 0.00 | 0.00 | 80 | 1012.5 |
| 20260903034216 | 82 | 248 | 2.0 | 3.0 | 0.00 | 0.00 | 0.00 | 80 | 1012.5 |
| 20260903033216 | 82 | 203 | 3.0 | 4.0 | 0.00 | 0.00 | 0.00 | 80 | 1012.5 |
| 20260903032215 | 82 | 225 | 2.0 | 3.0 | 0.00 | 0.00 | 0.00 | 80 | 1012.3 |
| 20260903031236 | 81 | 225 | 3.0 | 4.0 | 0.00 | 0.00 | 0.00 | 80 | 1012.4 |
| 20260903030236 | 82 | 225 | 1.0 | 2.0 | 0.00 | 0.00 | 0.00 | 78 | 1012.4 |
| 20260903025215 | 82 | 293 | 1.0 | 1.0 | 0.00 | 0.00 | 0.00 | 77 | 1012.4 |
| 20260903024216 | 83 | 0.0 | 0.0 | 0.00 | 0.00 | 0.00 | 75 | 1012.4 | |
| 20260903023216 | 84 | 0.0 | 0.0 | 0.00 | 0.00 | 0.00 | 74 | 1012.3 | |
| 20260903022215 | 84 | 0.0 | 0.0 | 0.00 | 0.00 | 0.00 | 73 | 1012.4 | |
| 20260903021216 | 85 | 0.0 | 0.0 | 0.00 | 0.00 | 0.00 | 72 | 1012.3 | |
| 20260903020217 | 85 | 0.0 | 1.0 | 0.00 | 0.00 | 0.00 | 72 | 1012.2 | |
| 20260903015217 | 85 | 0.0 | 1.0 | 0.00 | 0.00 | 0.00 | 71 | 1012.0 | |
| 20260903014218 | 85 | 203 | 2.0 | 3.0 | 0.00 | 0.00 | 0.00 | 71 | 1012.0 |
| 20260903013217 | 86 | 225 | 3.0 | 5.0 | 0.00 | 0.00 | 0.00 | 70 | 1011.9 |
| 20260903012217 | 86 | 203 | 1.0 | 2.0 | 0.00 | 0.00 | 0.00 | 70 | 1011.7 |
| 20260903011218 | 87 | 0 | 3.0 | 4.0 | 0.00 | 0.00 | 0.00 | 69 | 1011.5 |
| 20260903010217 | 87 | 203 | 3.0 | 6.0 | 0.00 | 0.00 | 0.00 | 69 | 1011.4 |
| 20260903005217 | 87 | 0 | 4.0 | 8.0 | 0.00 | 0.00 | 0.00 | 68 | 1011.3 |
| 20260903004237 | 88 | 180 | 4.0 | 5.0 | 0.00 | 0.00 | 0.00 | 67 | 1011.1 |
| 20260903003237 | 88 | 203 | 3.0 | 4.0 | 0.00 | 0.00 | 0.00 | 66 | 1011.1 |
| 20260903002237 | 88 | 0 | 4.0 | 5.0 | 0.00 | 0.00 | 0.00 | 65 | 1011.1 |
| 20260903001257 | 89 | 0 | 4.0 | 8.0 | 0.00 | 0.00 | 0.00 | 64 | 1011.1 |
| 20260903000218 | 90 | 0 | 6.0 | 10.0 | 0.00 | 0.00 | 0.00 | 64 | 1011.2 |
| 20260902235217 | 90 | 0 | 4.0 | 6.0 | 0.00 | 0.00 | 0.00 | 63 | 1011.2 |
| 20260902234217 | 90 | 0 | 5.0 | 8.0 | 0.00 | 0.00 | 0.00 | 62 | 1011.3 |
| 20260902233217 | 91 | 0 | 6.0 | 9.0 | 0.00 | 0.00 | 0.00 | 61 | 1011.4 |
| 20260902232237 | 92 | 0 | 8.0 | 12.0 | 0.00 | 0.00 | 0.00 | 60 | 1011.4 |
| 20260902231217 | 92 | 0 | 7.0 | 10.0 | 0.00 | 0.00 | 0.00 | 59 | 1011.5 |
| 20260902230217 | 93 | 0 | 6.0 | 10.0 | 0.00 | 0.00 | 0.00 | 59 | 1011.6 |
| 20260902225217 | 93 | 225 | 9.0 | 12.0 | 0.00 | 0.00 | 0.00 | 58 | 1011.6 |
| 20260902224217 | 93 | 0 | 7.0 | 9.0 | 0.00 | 0.00 | 0.00 | 58 | 1011.7 |
| 20260902223257 | 94 | 0 | 7.0 | 9.0 | 0.00 | 0.00 | 0.00 | 57 | 1011.7 |
| 20260902222237 | 94 | 0 | 9.0 | 12.0 | 0.00 | 0.00 | 0.00 | 56 | 1011.7 |
| 20260902221217 | 95 | 203 | 8.0 | 11.0 | 0.00 | 0.00 | 0.00 | 52 | 1011.7 |
| 20260902220217 | 95 | 203 | 7.0 | 11.0 | 0.00 | 0.00 | 0.00 | 53 | 1011.8 |
| 20260902215217 | 96 | 203 | 6.0 | 8.0 | 0.00 | 0.00 | 0.00 | 53 | 1011.8 |
| 20260902214217 | 96 | 225 | 6.0 | 9.0 | 0.00 | 0.00 | 0.00 | 51 | 1011.9 |
| 20260902213237 | 96 | 225 | 5.0 | 8.0 | 0.00 | 0.00 | 0.00 | 50 | 1011.9 |
| 20260902212217 | 96 | 248 | 4.0 | 8.0 | 0.00 | 0.00 | 0.00 | 53 | 1011.9 |
| 20260902211217 | 96 | 203 | 7.0 | 12.0 | 0.00 | 0.00 | 0.00 | 51 | 1012.0 |
| 20260902210217 | 96 | 0 | 10.0 | 14.0 | 0.00 | 0.00 | 0.00 | 51 | 1012.1 |
| 20260902205217 | 96 | 0 | 5.0 | 9.0 | 0.00 | 0.00 | 0.00 | 52 | 1012.2 |
| 20260902204217 | 96 | 0 | 7.0 | 11.0 | 0.00 | 0.00 | 0.00 | 52 | 1012.2 |
| 20260902203217 | 96 | 0 | 9.0 | 15.0 | 0.00 | 0.00 | 0.00 | 49 | 1012.2 |
| 20260902202237 | 97 | 0 | 6.0 | 11.0 | 0.00 | 0.00 | 0.00 | 50 | 1012.2 |
| 20260902201217 | 96 | 0 | 8.0 | 10.0 | 0.00 | 0.00 | 0.00 | 52 | 1012.2 |
| 20260902200217 | 96 | 0 | 9.0 | 15.0 | 0.00 | 0.00 | 0.00 | 52 | 1012.2 |
| 20260902195237 | 96 | 0 | 11.0 | 15.0 | 0.00 | 0.00 | 0.00 | 52 | 1012.3 |
| 20260902194217 | 94 | 0 | 9.0 | 17.0 | 0.00 | 0.00 | 0.00 | 53 | 1012.4 |
| 20260902193217 | 94 | 0 | 5.0 | 8.0 | 0.00 | 0.00 | 0.00 | 55 | 1012.6 |
| 20260902192217 | 94 | 0 | 6.0 | 10.0 | 0.00 | 0.00 | 0.00 | 52 | 1012.7 |
| 20260902191217 | 95 | 0 | 7.0 | 12.0 | 0.00 | 0.00 | 0.00 | 53 | 1012.7 |
| 20260902190217 | 96 | 0 | 6.0 | 10.0 | 0.00 | 0.00 | 0.00 | 52 | 1012.8 |
| 20260902185217 | 95 | 0 | 6.0 | 10.0 | 0.00 | 0.00 | 0.00 | 54 | 1012.9 |
| 20260902184217 | 94 | 0 | 11.0 | 16.0 | 0.00 | 0.00 | 0.00 | 54 | 1012.8 |
| 20260902183237 | 95 | 0 | 5.0 | 11.0 | 0.00 | 0.00 | 0.00 | 52 | 1012.8 |
| 20260902182237 | 95 | 0 | 9.0 | 11.0 | 0.00 | 0.00 | 0.00 | 53 | 1012.9 |
| 20260902181217 | 95 | 0 | 9.0 | 14.0 | 0.00 | 0.00 | 0.00 | 53 | 1013.1 |
| 20260902180217 | 94 | 0.0 | 0.0 | 0.00 | 0.00 | 0.00 | 53 | 1013.1 | |
| 20260902175217 | 94 | 0.0 | 0.0 | 0.00 | 0.00 | 0.00 | 54 | 1013.1 |